This is the latest recevied weather packets stored in our database for station/object KM5VY. If no packets are shown the sender has not sent any weather packets the latest 10 day(s).
| Time | Temp. | Humidity | Pressure | Rain* | Wind** | Luminosity | Snow |
|---|---|---|---|---|---|---|---|
| 1788557792 | 28.33° C | 37% | 1022.3 hPa | 0 mm | - | - | - |
| 1788557191 | 28.33° C | 37% | 1022.3 hPa | 0 mm | - | - | - |
| 1788556590 | 28.33° C | 37% | 1022.3 hPa | 0 mm | - | - | - |
| 1788555989 | 28.33° C | 37% | 1022.7 hPa | 0 mm | - | - | - |
| 1788555388 | 28.33° C | 37% | 1022.7 hPa | 0 mm | - | - | - |
| 1788554787 | 28.33° C | 38% | 1022.7 hPa | 0 mm | - | - | - |
| 1788554186 | 28.33° C | 39% | 1023 hPa | 0 mm | - | - | - |
| 1788553585 | 27.78° C | 39% | 1023 hPa | 0 mm | - | - | - |
| 1788552984 | 27.22° C | 41% | 1023.4 hPa | 0 mm | - | - | - |
| 1788552383 | 26.67° C | 42% | 1023.4 hPa | 0 mm | - | - | - |
| 1788551782 | 26.11° C | 44% | 1023.7 hPa | 0 mm | - | - | - |
| 1788551181 | 25° C | 47% | 1023.7 hPa | 0 mm | - | - | - |
| 1788550580 | 24.44° C | 48% | 1024 hPa | 0 mm | - | - | - |
| 1788549979 | 23.89° C | 51% | 1024 hPa | 0 mm | - | - | - |
| 1788549378 | 23.33° C | 52% | 1024 hPa | 0 mm | - | - | - |
| 1788548777 | 22.78° C | 53% | 1024 hPa | 0 mm | - | - | - |
| 1788548176 | 21.67° C | 55% | 1024.4 hPa | 0 mm | - | - | - |
| 1788547575 | 21.67° C | 56% | 1024.4 hPa | 0 mm | - | - | - |
| 1788546974 | 21.67° C | 57% | 1024.4 hPa | 0 mm | - | - | - |
| 1788546373 | 21.11° C | 57% | 1024.7 hPa | 0 mm | - | - | - |
| 1788545772 | 20.56° C | 57% | 1025.1 hPa | 0 mm | - | - | - |
| 1788545171 | 20.56° C | 57% | 1025.4 hPa | 0 mm | - | - | - |
| 1788544570 | 20.56° C | 57% | 1025.1 hPa | 0 mm | - | - | - |
| 1788543969 | 21.11° C | 57% | 1025.1 hPa | 0 mm | - | - | - |
| 1788543368 | 21.11° C | 57% | 1025.1 hPa | 0 mm | - | - | - |
* Rain latest hour (hover to see other rain measurements)
** Current wind speed in m/s (hover to see current wind gust speed)